Погода в Витебске

Россия / Воронежская область     50°25′22″N   39°56′00″E
темп.,
°C
ветер,
м/с
пор.,
м/с
влажн.,
%
обл.,
%
осадки,
мм/ч
давл.,
гПа
погр.,
м
11 апреля, вс
вс1100:00+5с396749 0.0 1024218
03:00+4с3107075 0.0 1026277
06:00+4ссв51369100 0.0 1026364
09:00+8ссв71355100 0.0 1026673
12:00+12ссв91242100 0.0 1025897
15:00+13св81044100 0.0 10251074
18:00+11ссв71154100 0.0 10251062
21:00+9св61082100 0.0 1025438
12 апреля, пн
пн1200:00+9св5118694 0.0 1025366
03:00+7ссв51096100 0.0 1025256
06:00+7св5119664 0.0 1025245
09:00+14всв696658 0.0 1024397
12:00+21вюв79335 0.0 10231069
15:00+23вюв892914 0.0 10221721
18:00+20вюв61141100 0.0 1023446
21:00+15вюв4115474 0.0 1025232
13 апреля, вт
вт1300:00+13вюв4135125 0.0 1024275
03:00+11вюв4115796 0.0 1025200
06:00+10вюв4126484 0.0 1025235
09:00+16вюв6104493 0.0 1025540
12:00+20юв8112830 0.0 10241347
15:00+21юв812270 0.0 10232053
18:00+19юв6113610 0.0 1022586
21:00+15вюв61444100 0.0 1023372
14 апреля, ср
ср1400:00+13вюв31152100 0.0 1022237
03:00+12вюв4115179 0.0 1022249
06:00+9вюв3116196 0.0 1021219
09:00+15юв61041100 0.0 1021588
12:00+19юв682685 0.0 10191353
15:00+21юв6824100 0.0 10182230
18:00+18вюв593594 0.0 1017302
21:00+14вюв394980 0.0 1018146
15 апреля, чт
чт1500:00+12вюв355598 0.0 101777
03:00+11вюв2257100 0.0 101712
06:00+10в3461100 0.0 101769
09:00+16вюв4746100 0.0 1016437
12:00+19юв4531100 0.0 10151229
15:00+21юв3527100 0.0 10142416
18:00+19юв4737100 0.0 1013222
21:00+15ю3546100 0.0 101388